Waarnemingen

Advertentie
Mijn weer
Spa/La Sauveniere, België (6490): temperatuur & dauwpunt: 16.10.2017 14:00:00 - 22.10.2017 14:00:00 (CEST)Spa/La Sauveniere, België (6490): windsnelheid & windstoten: 16.10.2017 14:00:00 - 22.10.2017 14:00:00 (CEST)Spa/La Sauveniere, België (6490): windrichting: 16.10.2017 14:00:00 - 22.10.2017 14:00:00 (CEST)Spa/La Sauveniere, België (6490): luchtdruk: 16.10.2017 14:00:00 - 22.10.2017 14:00:00 (CEST)Spa/La Sauveniere, België (6490): zicht: 16.10.2017 14:00:00 - 22.10.2017 14:00:00 (CEST)
Datum & Tijd tt [°C] td [°C] ff [km/u] ff [kn] fx [km/u] fx [kn] dd ppp [hPa] vv [km]
22.10.2017 14:00:00 - - - - - - - - -
22.10.2017 13:00:00 - - - - - - - - -
22.10.2017 12:00:00 6,7 5,3 22 12 47 25 WZW 1013,4 5
22.10.2017 11:00:00 6,6 5,1 25 14 - - ZW 1013,2 15
22.10.2017 10:00:00 6,6 5,1 25 14 47 25 ZW 1013,0 11
22.10.2017 09:00:00 - - - - - - - - -
22.10.2017 08:00:00 - - - - - - - - -
22.10.2017 07:00:00 6,7 4,3 25 14 43 23 ZW 1012,5 6
22.10.2017 06:00:00 6,8 6,0 22 12 50 27 ZW 1012,3 5
22.10.2017 05:00:00 7,9 4,0 22 12 - - ZW 1012,2 23
22.10.2017 04:00:00 7,8 4,3 25 14 43 23 ZZW 1012,6 22
22.10.2017 03:00:00 7,9 4,3 22 12 40 21 ZZW 1012,6 24
22.10.2017 02:00:00 8,1 4,6 22 12 - - ZZW 1013,0 27
22.10.2017 01:00:00 8,8 5,1 22 12 47 25 ZW 1013,2 30
22.10.2017 00:00:00 9,1 5,3 22 12 43 23 ZW 1013,1 29
21.10.2017 23:00:00 9,7 5,7 25 14 - - ZW 1013,0 28
21.10.2017 22:00:00 10,4 6,8 25 14 50 27 ZW 1012,8 20
21.10.2017 21:00:00 10,3 7,1 18 10 32 18 ZZW 1012,9 16
21.10.2017 20:00:00 10,2 6,3 14 8 - - Z 1012,7 19
21.10.2017 19:00:00 11,1 6,3 18 10 36 19 ZW 1012,5 25
21.10.2017 18:00:00 12,2 6,9 14 8 40 21 ZZW 1012,1 30
21.10.2017 17:00:00 12,6 7,4 18 10 - - ZW 1012,3 40
21.10.2017 16:00:00 13,0 8,0 18 10 47 25 ZW 1011,8 28
21.10.2017 15:00:00 12,9 8,8 22 12 36 19 ZW 1011,9 45
21.10.2017 14:00:00 12,9 9,4 22 12 - - ZW 1012,0 10
21.10.2017 13:00:00 13,4 10,4 22 12 47 25 ZW 1012,0 40
21.10.2017 12:00:00 13,2 10,7 25 14 50 27 ZW 1012,4 35
21.10.2017 11:00:00 12,5 11,5 22 12 - - ZZW 1012,0 30
21.10.2017 10:00:00 12,1 11,7 22 12 43 23 ZZW 1012,1 8
21.10.2017 09:00:00 11,3 9,9 22 12 43 23 Z 1012,1 10
21.10.2017 08:00:00 10,4 8,0 25 14 - - Z 1011,7 16
21.10.2017 07:00:00 9,2 6,7 25 14 40 21 Z 1012,6 14
21.10.2017 06:00:00 8,6 5,9 14 8 32 18 Z 1012,8 18
21.10.2017 05:00:00 8,4 5,2 18 10 - - ZZO 1013,5 20
21.10.2017 04:00:00 8,8 5,4 18 10 32 18 Z 1014,2 22
21.10.2017 03:00:00 8,5 5,1 18 10 29 16 Z 1014,7 22
21.10.2017 02:00:00 8,7 5,0 14 8 - - Z 1014,9 23
21.10.2017 01:00:00 8,6 4,6 14 8 22 12 Z 1015,1 24
21.10.2017 00:00:00 8,5 4,4 11 6 22 12 Z 1015,1 30
20.10.2017 23:00:00 8,8 4,5 14 8 - - ZZW 1015,4 35
20.10.2017 22:00:00 8,9 4,6 18 10 25 14 ZZW 1015,3 28
20.10.2017 21:00:00 9,1 4,6 14 8 25 14 ZZW 1015,2 26
20.10.2017 20:00:00 10,0 4,7 14 8 - - ZZW 1015,0 25
20.10.2017 19:00:00 10,4 5,2 11 6 25 14 ZW 1014,2 28
20.10.2017 18:00:00 10,9 5,5 14 8 29 16 WZW 1013,7 30
20.10.2017 17:00:00 10,9 5,6 14 8 - - WZW 1013,4 15
20.10.2017 16:00:00 11,7 4,6 22 12 43 23 WZW 1012,7 35
20.10.2017 15:00:00 12,3 4,7 25 14 43 23 ZW 1012,0 30
20.10.2017 14:00:00 11,0 6,0 18 10 - - ZW 1012,3 40
20.10.2017 13:00:00 10,6 6,2 18 10 40 21 WZW 1012,3 40
20.10.2017 12:00:00 10,1 6,5 22 12 43 23 ZW 1011,7 40
20.10.2017 11:00:00 10,2 7,1 22 12 - - ZW 1010,9 40
20.10.2017 10:00:00 10,4 7,9 22 12 43 23 ZW 1010,4 40
20.10.2017 09:00:00 12,0 10,5 22 12 40 21 Z 1008,4 7
20.10.2017 08:00:00 13,0 10,1 22 12 - - Z 1007,9 35
20.10.2017 07:00:00 12,8 9,6 22 12 43 23 Z 1008,4 35
20.10.2017 06:00:00 12,8 9,0 18 10 36 19 Z 1008,7 30
20.10.2017 05:00:00 13,1 9,2 22 12 - - ZZW 1009,3 8
20.10.2017 04:00:00 13,5 8,1 18 10 32 18 Z 1009,3 30
20.10.2017 03:00:00 13,6 7,8 18 10 29 16 Z 1009,9 30
20.10.2017 02:00:00 13,2 7,6 14 8 - - Z 1010,4 30
20.10.2017 01:00:00 14,3 8,1 18 10 29 16 Z 1009,8 30
20.10.2017 00:00:00 13,7 8,5 18 10 29 16 Z 1009,8 30
19.10.2017 23:00:00 14,3 9,2 18 10 - - Z 1010,0 30
19.10.2017 22:00:00 14,1 9,2 14 8 22 12 Z 1010,1 29
19.10.2017 21:00:00 14,7 9,5 14 8 25 14 ZZO 1010,2 25
19.10.2017 20:00:00 15,0 9,6 14 8 - - ZZO 1010,2 23
19.10.2017 19:00:00 15,6 9,8 14 8 29 16 Z 1009,9 21
19.10.2017 18:00:00 17,0 10,7 14 8 29 16 ZZO 1009,6 26
19.10.2017 17:00:00 17,1 10,1 14 8 - - Z 1009,8 26
19.10.2017 16:00:00 18,2 10,6 22 12 32 18 Z 1009,6 22
19.10.2017 15:00:00 18,0 10,3 14 8 36 19 Z 1010,0 30
19.10.2017 14:00:00 17,8 11,3 22 12 - - ZZO 1010,4 24
19.10.2017 13:00:00 16,6 - - - - - - - 25
19.10.2017 12:00:00 - 9,5 - - 32 18 - - 19
19.10.2017 11:00:00 13,3 9,3 18 10 - - ZZO 1012,3 15
19.10.2017 10:00:00 11,9 9,1 14 8 29 16 ZZO 1012,6 11
19.10.2017 09:00:00 11,2 8,2 22 12 29 16 ZZO 1012,4 11
19.10.2017 08:00:00 - - - - - - - - -
19.10.2017 07:00:00 11,2 8,2 22 12 29 16 ZZO 1012,3 9
19.10.2017 06:00:00 11,4 8,0 18 10 25 14 ZZO 1012,7 10
19.10.2017 05:00:00 11,7 7,8 14 8 - - ZZO 1013,1 12
19.10.2017 04:00:00 11,1 7,3 18 10 22 12 ZZO 1013,3 12
19.10.2017 03:00:00 11,4 7,3 14 8 22 12 ZZO 1013,6 14
19.10.2017 02:00:00 11,9 7,7 11 6 - - ZZO 1013,6 16
19.10.2017 01:00:00 12,5 8,3 11 6 22 12 ZZO 1013,6 19
19.10.2017 00:00:00 13,2 8,6 14 8 22 12 Z 1013,6 17
18.10.2017 23:00:00 13,1 8,4 14 8 - - ZZO 1013,7 17
18.10.2017 22:00:00 13,5 8,4 14 8 22 12 ZZO 1013,6 18
18.10.2017 21:00:00 14,0 8,4 14 8 22 12 Z 1013,7 19
18.10.2017 20:00:00 14,4 8,4 14 8 - - ZZO 1013,4 21
18.10.2017 19:00:00 14,9 8,5 11 6 14 8 Z 1013,3 22
18.10.2017 18:00:00 16,7 9,7 7 4 14 8 Z 1012,9 29
18.10.2017 17:00:00 18,9 10,9 11 6 - - Z 1012,5 28
18.10.2017 16:00:00 18,8 10,4 14 8 29 16 ZZW 1012,5 30
18.10.2017 15:00:00 18,7 10,5 14 8 29 16 ZW 1012,7 30
18.10.2017 14:00:00 18,4 10,8 11 6 - - Z 1013,1 30
18.10.2017 13:00:00 16,3 9,9 18 10 25 14 ZZO 1013,9 27
18.10.2017 12:00:00 14,8 8,6 14 8 32 18 Z 1014,3 30
18.10.2017 11:00:00 13,2 8,1 22 12 - - ZZO 1014,4 27
18.10.2017 10:00:00 11,5 7,8 29 16 40 21 ZZO 1014,7 20
18.10.2017 09:00:00 11,0 7,3 29 16 36 19 ZZO 1014,8 17
18.10.2017 08:00:00 11,3 7,7 25 14 - - ZZO 1014,6 15
18.10.2017 07:00:00 12,0 8,2 25 14 36 19 ZZO 1014,5 16
18.10.2017 06:00:00 12,5 8,7 25 14 32 18 ZZO 1014,7 15
18.10.2017 05:00:00 12,6 9,4 25 14 - - ZZO 1015,1 11
18.10.2017 04:00:00 13,0 9,7 22 12 36 19 ZZO 1015,4 12
18.10.2017 03:00:00 13,8 10,3 25 14 36 19 ZZO 1015,8 13
18.10.2017 02:00:00 14,0 12,1 22 12 - - ZZO 1016,1 -
18.10.2017 01:00:00 13,5 10,8 14 8 22 12 ZZO 1017,0 -
18.10.2017 00:00:00 14,0 11,5 18 10 22 12 ZO 1017,4 -
17.10.2017 23:00:00 14,1 11,3 14 8 - - ZO 1017,8 -
17.10.2017 22:00:00 14,3 10,9 11 6 14 8 ZO 1018,2 -
17.10.2017 21:00:00 14,3 10,8 11 6 14 8 ZZO 1018,6 -
17.10.2017 20:00:00 14,8 10,8 11 6 - - ZZO 1018,9 -
17.10.2017 19:00:00 15,2 10,7 11 6 11 6 ZO 1018,9 10
17.10.2017 18:00:00 16,7 12,1 4 2 7 4 OZO 1019,0 13
17.10.2017 17:00:00 17,4 12,1 4 2 - - N 1019,5 12
17.10.2017 16:00:00 18,7 12,9 4 2 14 8 ZW 1019,6 11
17.10.2017 15:00:00 18,4 12,9 7 4 18 10 ZW 1020,1 13
17.10.2017 14:00:00 18,0 13,2 7 4 - - Z 1021,0 13
17.10.2017 13:00:00 16,7 12,6 14 8 22 12 ZZO 1021,7 16
17.10.2017 12:00:00 15,2 12,1 14 8 25 14 ZZO 1022,4 13
17.10.2017 11:00:00 14,5 11,7 18 10 - - ZZO 1022,6 11
17.10.2017 10:00:00 13,4 10,5 18 10 25 14 ZZO 1023,0 12
17.10.2017 09:00:00 11,3 8,6 7 4 14 8 Z 1023,6 -
17.10.2017 08:00:00 12,0 9,1 11 6 - - ZZO 1023,2 -
17.10.2017 07:00:00 12,6 9,4 4 2 11 6 ZZW 1023,2 12
17.10.2017 06:00:00 13,3 10,0 7 4 18 10 ZZW 1022,9 16
17.10.2017 05:00:00 14,1 9,9 14 8 - - Z 1022,6 22
17.10.2017 04:00:00 14,4 9,9 14 8 25 14 ZZW 1022,6 24
17.10.2017 03:00:00 14,3 9,5 18 10 25 14 Z 1022,5 20
17.10.2017 02:00:00 15,1 9,5 14 8 - - Z 1022,6 27
17.10.2017 01:00:00 15,2 9,5 14 8 25 14 Z 1022,7 30
17.10.2017 00:00:00 15,8 9,8 14 8 36 19 Z 1022,7 30
16.10.2017 23:00:00 16,3 9,9 22 12 - - Z 1022,2 30
16.10.2017 22:00:00 16,0 10,4 25 14 36 19 ZZO 1022,1 26
16.10.2017 21:00:00 16,6 10,8 25 14 43 23 ZZO 1021,8 27
16.10.2017 20:00:00 16,7 11,4 29 16 - - ZZO 1021,6 25
16.10.2017 19:00:00 17,6 11,2 29 16 43 23 ZZO 1021,1 26
16.10.2017 18:00:00 19,0 10,3 22 12 29 16 ZZO 1021,3 28
16.10.2017 17:00:00 21,2 11,2 14 8 - - ZZO 1020,9 28
16.10.2017 16:00:00 22,3 13,3 11 6 29 16 Z 1021,3 26
16.10.2017 15:00:00 21,9 13,1 18 10 32 18 ZZO 1021,5 26
16.10.2017 14:00:00 21,0 13,3 22 12 - - ZZO 1022,1 29

tt = temperatuur
td = dauwpunt
ff = windsnelheid
fx = windstoten
dd = windrichting
ppp = luchtdruk
vv = zicht

Weerstations in de omgeving